This demonstration page uses our WeatherBlox Daily Observations layout. Learn more.

Left ArrowRight Arrow

31.84235, -102.49876

Hourly Observations for June 17, 2022

Temp ( °F °C ) Dew Point ( °F °C ) Humidity (%) Winds ( mph kmh ) Pressure ( in mb ) Visibility ( mi km ) Precip ( " mm )
12:53 am 00:53 Clear 84 28.9 48 8.9 29 29 SSE 15 24 29.93 1014 9 14 0.00 0.00
1:53 am 01:53 Clear 82 27.8 50 10 33 33 SSE 14 22 29.94 1014 9 14 0.00 0.00
2:53 am 02:53 Clear 81 27.2 51 10.6 35 35 SSE 13 20 29.93 1013 9 14 0.00 0.00
3:53 am 03:53 Clear 80 26.7 50 10 35 35 S 13 20 29.92 1013 9 14 0.00 0.00
4:53 am 04:53 Clear 77 25 50 10 39 39 SSE 9 15 29.92 1013 9 14 0.00 0.00
5:53 am 05:53 Clear 76 24.4 51 10.6 42 42 SSE 9 15 29.93 1014 9 14 0.00 0.00
6:53 am 06:53 Sunny 75 23.9 54 12.2 48 48 S 8 13 29.94 1014 7 11 0.00 0.00
7:53 am 07:53 Sunny 76 24.4 58 14.4 54 54 SSE 12 19 29.95 1014 7 11 0.00 0.00
8:53 am 08:53 Sunny 79 26.1 58 14.4 49 49 S 13 20 29.96 1015 7 11 0.00 0.00
9:53 am 09:53 Sunny 82 27.8 55 12.8 40 40 SSE 17 28 29.98 1015 8 13 0.00 0.00
10:53 am 10:53 Sunny 86 30 51 10.6 30 30 S 18 30 29.98 1015 8 13 0.00 0.00
11:53 am 11:53 Sunny 89 31.7 48 8.9 24 24 S 17 28 29.97 1015 9 14 0.00 0.00
12:53 pm 12:53 Sunny 90 32.2 49 9.4 24 24 SSE 15 24 29.96 1014 9 14 0.00 0.00
1:53 pm 13:53 Sunny 93 33.9 45 7.2 19 19 SSE 16 26 29.93 1014 10 16 0.00 0.00
2:53 pm 14:53 Sunny 94 34.4 44 6.7 18 18 SSE 17 28 29.91 1013 10 16 0.00 0.00
3:53 pm 15:53 Sunny 95 35 39 3.9 14 14 SSE 12 19 29.87 1012 10 16 0.00 0.00
4:53 pm 16:53 Sunny 97 36.1 36 2.2 12 12 SSE 17 28 29.85 1011 10 16 0.00 0.00
5:53 pm 17:53 Sunny 97 36.1 37 2.8 12 12 SE 22 35 29.84 1011 10 16 0.00 0.00
6:53 pm 18:53 Sunny 96 35.6 37 2.8 13 13 SE 17 28 29.83 1010 10 16 0.00 0.00
7:53 pm 19:53 Sunny 94 34.4 39 3.9 15 15 SSE 20 31 29.83 1010 10 16 0.00 0.00
8:53 pm 20:53 Sunny 92 33.3 40 4.4 16 16 SSE 12 19 29.83 1010 10 16 0.00 0.00
9:53 pm 21:53 Clear 89 31.7 41 5 19 19 SSE 9 15 29.84 1011 10 16 0.00 0.00
10:53 pm 22:53 Clear 86 30 42 5.6 21 21 S 10 17 29.86 1011 10 16 0.00 0.00
11:53 pm 23:53 Clear 84 28.9 44 6.7 25 25 S 8 13 29.87 1012 10 16 0.00 0.00

Powered by AerisWeather